Find Astra 1N

NORAD ID: 37775 Int'l Des: 2011-041 Owner: SESE/SESSA Country: L operational
HEOCIRCULARGSOGEO

Live Position

Loading 3D Globe...

About Astra 1N

Description loading...

Upcoming Passes

Passes for default location (London). Set your location on the main map for personalized predictions.

Altitude History

Loading altitude history...

Two-Line Element Set

1 37775U 11041A 26106.15531035 .00000126 00000-0 00000-0 0 9993
2 37775 0.1104 53.5353 0005255 356.5922 229.2818 1.00273895 43903
Epoch: Apr 16, 2026 • Age: 17 hours

Current Status

Altitude 35797.6 km
Velocity 3.07 km/s
Sub-Earth Point 0.08°N, 19.24°E
Launch Date Aug 6, 2011
Age 14.6 years
Type other

Technical Details

Classification Payload
Mass 5330.00 kg
Dry Mass 3000.00 kg
Total Mass 5330.00 kg
Length 6.50 m
Diameter 2.80 m
Span 39.80 m
Shape Box + 2 Pan
Manufacturer EADSB
Bus Type Eurostar 3000M
Phase Status In Orbit
Owner/State SESE/SESSA/L

Most Searched